Location: Sobotiste
(48.7170°N, 17.4000°E)
Time: 07:51:56
(UTC+01:00)

POLYITAN 1 - Visible Passes

Search period start: 11 March 2026 00:00
Search period end: 21 March 2026 00:00
Orbit: 471 x 483 km, 98.1° (Epoch: 10 March)

Date Brightness Start Highest point End Pass type
(mag) Time Alt. Az. Time Alt. Az. Time Alt. Az.
12 Mar ? 19:10:22 10° W 19:10:51 10° W 19:11:18 10° W visible
13 Mar ? 18:41:06 10° SW 18:43:47 20° W 18:46:29 10° NW visible
16 Mar ? 18:54:15 10° SW 18:56:24 15° W 18:58:34 10° NW visible
17 Mar ? 18:26:06 10° SSW 18:29:14 30° W 18:32:24 10° NW visible
19 Mar ? 19:07:20 10° WSW 19:08:38 12° W 19:09:55 10° WNW visible
20 Mar ? 18:38:26 10° SSW 18:41:17 23° W 18:44:09 10° NW visible
